Location: Unspecified
(0.0000°N, 0.0000°E)
Time: 21:19:02
(UTC+00:00)

Alouette 1 - Pass Details

Date: 30 October 2021
Orbit: 985 x 1019 km, 80.5° (Epoch: 07 December)

Event Time Altitude Azimuth Distance (km) Brightness Sun altitude
Rises 19:02:04 0° 320° (NW) 3,729 9.4 -19.0°
Reaches altitude 10° 19:05:44 10° 300° (WNW) 2,776 9.0 -19.9°
Maximum altitude 19:09:22 16° 264° (W) 2,370 9.0 -20.8°
Drops below altitude 10° 19:13:01 10° 229° (SW) 2,768 9.3 -21.6°
Sets 19:16:42 0° 208° (SSW) 3,713 9.7 -22.5°
